Lapse_Rate
5.8 5.9 5.9 5.9 6.0 6.1 6.1 6.3 6.4 6.5 6.6 6.8 6.9 6.9 6.9 7.0 6.9 7.0 7.2 7.3 7.3 7.1 7.2 7.1 7.0 6.9 6.8 6.2 6.5 6.6 7.3 8.0 8.7 9.4 9.2 8.5 7.7 8.1 7.7 7.6 8.0 8.0 7.8 7.5 8.3
6.0 6.0 6.0 6.0 6.0 6.0 6.1 6.2 6.3 6.4 6.5 6.6 6.7 6.8 6.8 6.9 6.9 6.9 7.0 7.1 7.1 7.0 7.0 6.9 6.8 6.6 6.1 6.2 6.5 6.7 7.3 8.2 9.0 8.9 8.4 8.1 7.8 8.0 7.8 7.9 8.3 8.0 7.6 7.8 7.6
6.0 6.1 6.0 6.1 6.2 6.2 6.2 6.1 6.2 6.3 6.3 6.4 6.5 6.6 6.7 6.8 6.6 6.8 6.9 7.0 6.9 6.8 6.8 6.6 5.9 5.8 6.0 6.4 6.6 6.8 7.1 7.9 7.9 7.5 7.4 7.7 7.7 7.7 7.6 8.0 8.3 8.5 8.0 7.7 7.8
6.1 6.1 6.2 6.2 6.1 6.2 6.3 6.3 6.2 6.2 6.2 6.3 6.4 6.6 6.6 6.6 6.6 6.8 6.9 6.9 6.8 6.7 6.6 6.1 5.7 5.8 6.2 6.6 6.7 6.7 7.0 7.2 7.4 7.0 6.9 7.1 7.2 7.5 7.6 7.9 8.5 8.5 7.6 7.5 7.8
6.0 6.1 6.2 6.2 6.2 6.2 6.2 6.3 6.4 6.3 6.3 6.3 6.4 6.5 6.5 6.5 5.8 6.9 6.8 6.7 6.7 6.6 6.5 6.2 5.8 6.0 6.4 6.7 6.8 6.8 6.9 7.1 6.8 6.8 6.7 6.7 6.8 7.1 7.2 7.8 8.0 7.9 7.5 7.9 8.0
5.5 5.6 5.7 5.9 6.0 6.1 6.2 6.2 6.3 6.3 6.3 6.3 6.4 6.3 6.3 6.4 6.0 6.5 6.6 6.6 6.4 6.5 6.4 5.7 5.9 6.1 6.4 6.6 6.8 7.1 6.9 6.8 6.8 6.7 6.7 6.6 6.7 6.6 7.3 7.5 7.6 7.8 7.7 8.3 8.3
5.5 5.6 5.8 5.9 6.0 6.1 6.1 6.2 6.3 6.4 6.3 6.2 6.2 6.2 6.3 5.9 6.3 6.3 6.4 6.4 6.2 6.3 6.0 5.7 5.9 5.9 6.1 6.4 6.6 6.7 6.8 6.8 6.9 6.8 6.7 6.7 6.7 6.9 7.5 7.3 7.5 7.8 7.9 8.2 8.4
5.5 5.7 5.8 6.0 6.1 6.2 6.3 6.2 6.2 6.3 6.3 6.3 6.3 6.3 6.2 6.4 6.2 6.3 6.3 6.3 6.2 6.2 5.4 5.4 5.5 5.6 6.1 6.5 6.4 6.6 6.8 7.0 7.5 7.1 6.8 6.6 7.3 7.7 7.4 7.0 7.4 7.9 8.3 8.3 8.2
5.5 5.6 5.7 5.8 6.0 6.0 6.1 6.2 6.2 6.1 6.1 6.2 6.2 6.1 5.7 6.1 6.2 6.4 6.3 6.1 6.0 5.8 5.9 6.1 5.9 5.7 6.1 6.3 6.8 7.0 7.3 7.7 8.0 7.2 7.1 6.7 7.4 7.8 7.4 7.2 7.4 7.8 8.3 8.3 8.3
5.3 5.5 5.7 5.8 5.9 5.9 5.9 5.7 5.8 5.9 6.0 5.9 6.0 6.1 5.7 5.4 5.8 6.2 6.2 5.6 5.5 5.4 5.5 6.1 5.9 6.1 6.4 6.8 7.4 8.2 8.0 8.0 8.4 7.6 6.8 7.2 7.2 7.8 7.5 7.1 7.3 7.6 8.0 8.4 8.1
5.5 5.7 6.0 6.2 6.4 6.5 6.4 6.4 5.5 6.0 6.0 5.5 5.5 5.6 5.6 5.6 6.0 5.6 6.2 5.8 5.4 5.5 5.9 6.1 6.4 6.7 7.1 7.3 7.5 8.3 8.0 8.2 8.7 8.0 7.0 7.3 7.5 7.6 7.6 7.3 7.4 7.7 7.7 7.8 7.3
5.7 6.0 6.3 6.5 6.7 6.8 6.8 6.5 6.2 6.2 6.0 5.8 6.1 6.0 6.3 6.4 6.2 6.0 6.0 6.1 6.0 6.4 6.6 6.9 6.7 7.4 7.7 7.8 7.6 7.5 7.5 7.6 7.9 7.9 7.1 7.2 7.4 7.5 7.6 7.6 7.6 7.7 7.6 6.8 6.6
6.0 6.2 6.3 6.5 6.6 6.7 6.5 6.6 6.4 6.0 5.8 6.1 6.0 6.1 6.3 6.5 6.4 6.5 6.2 6.4 6.7 6.9 7.4 7.5 8.0 7.9 7.8 8.0 7.5 7.6 7.7 7.9 8.1 8.4 7.1 7.3 7.7 7.6 7.8 7.9 7.1 7.0 6.6 6.3 6.1
6.2 6.2 6.2 6.3 6.7 6.5 5.7 6.5 6.6 6.3 6.2 6.5 6.5 6.4 6.4 6.5 6.5 6.5 6.5 6.8 7.0 7.5 7.8 8.1 8.4 8.7 7.9 8.0 8.1 7.8 8.1 7.9 8.2 8.1 8.2 8.3 8.4 8.7 8.3 7.2 6.8 6.6 6.7 6.4 6.2
6.2 6.2 6.3 6.4 6.4 6.3 6.4 6.4 6.4 6.4 8.3 6.6 6.6 6.3 6.6 6.9 6.8 6.9 7.0 6.9 7.4 7.9 8.0 8.3 9.3 8.6 9.3 8.2 8.4 8.3 8.6 9.2 8.0 8.2 8.4 9.0 8.4 9.0 9.2 8.2 6.8 6.4 6.0 6.1 6.1
6.2 6.3 6.2 6.3 6.4 6.2 6.3 6.5 6.4 6.1 7.7 6.8 6.4 6.5 7.0 6.9 6.9 7.0 6.9 7.1 7.3 7.6 8.1 8.4 9.2 9.3 9.4 9.3 9.0 9.1 8.5 8.4 9.1 8.7 9.3 8.4 9.6 9.6 9.5 9.1 7.8 5.8 5.9 5.9 6.0
6.2 6.3 6.3 6.3 6.2 6.2 6.3 6.3 6.5 7.8 6.8 6.7 6.4 6.4 6.7 6.9 7.0 6.9 7.3 7.7 7.8 8.2 8.2 9.2 8.9 9.0 8.1 8.5 8.6 8.3 8.8 9.2 9.6 9.7 9.7 9.5 9.6 9.6 8.7 8.4 7.6 6.3 6.1 6.0 6.0
6.3 6.5 6.4 6.3 6.4 6.4 6.5 5.9 7.1 6.9 6.7 6.3 6.2 6.5 6.8 6.7 7.3 7.0 7.3 7.8 7.9 7.8 8.4 9.3 9.2 9.2 8.4 7.9 9.1 9.3 9.3 9.4 9.2 9.4 9.8 9.5 9.6 8.8 7.4 7.2 7.0 7.1 6.6 6.2 6.1
6.3 6.4 6.5 6.4 6.4 6.4 6.2 6.9 7.0 6.3 5.8 5.9 6.4 6.7 7.3 6.8 6.7 7.4 7.7 7.7 7.8 7.2 8.2 9.4 8.9 7.7 7.6 7.9 8.2 8.8 8.9 8.9 8.4 8.6 9.3 9.1 8.4 7.7 7.1 7.0 6.9 6.8 6.6 6.3 6.3
6.3 6.4 6.3 6.3 6.3 6.3 6.1 6.5 6.1 5.4 5.4 5.8 6.4 6.6 7.0 7.2 7.0 7.7 7.9 8.2 8.2 7.2 7.5 8.6 8.7 8.1 7.9 7.7 8.1 8.5 8.9 8.6 8.8 8.8 8.4 8.4 8.1 7.4 7.3 7.4 7.3 6.9 6.7 6.4 6.2
6.1 5.8 6.1 6.2 6.1 5.6 6.7 6.0 5.5 5.1 5.3 5.5 6.1 6.1 6.4 6.6 6.9 7.4 7.8 8.6 7.2 7.4 7.6 8.2 8.1 8.7 8.2 8.2 8.8 8.7 8.5 8.7 8.8 7.7 9.1 8.9 8.6 6.3 6.5 6.1 6.5 6.8 6.1 6.3 6.5
6.1 5.5 6.0 6.0 5.7 5.7 6.1 5.2 5.4 5.0 4.8 5.1 5.3 5.6 5.9 6.4 6.7 7.3 7.8 8.2 6.8 7.2 7.6 8.3 7.4 8.3 8.6 8.1 7.6 8.1 8.5 8.0 7.7 8.6 8.2 9.2 9.1 7.1 7.1 6.4 6.0 6.0 6.1 6.0 6.3
6.1 5.7 6.0 6.0 6.0 5.8 4.9 4.9 4.8 4.7 4.9 5.1 5.3 5.3 5.6 6.2 6.5 7.1 7.4 7.1 6.9 7.3 7.4 7.5 7.8 8.1 9.1 9.1 8.2 7.8 8.3 8.5 8.5 7.7 7.6 8.0 8.2 6.9 6.7 6.6 6.5 6.6 6.4 6.3 6.1
5.9 5.4 5.2 5.1 5.4 5.4 5.0 5.1 5.0 4.5 4.7 4.7 5.1 5.0 5.6 6.2 6.7 6.9 7.5 7.3 6.9 7.2 7.1 7.1 7.4 7.8 8.4 6.8 6.5 7.4 7.7 7.8 8.1 8.1 7.9 8.1 8.7 6.8 6.5 6.6 6.8 6.5 6.2 6.0 5.8
5.4 4.9 5.4 5.3 5.1 5.1 4.9 4.8 4.9 4.9 4.5 4.7 5.0 5.1 5.7 6.2 7.0 7.5 7.6 7.5 7.3 7.2 6.9 6.9 7.1 7.6 7.7 7.9 7.6 7.4 7.6 8.0 7.8 8.0 8.3 8.5 7.4 6.8 6.7 6.8 6.5 6.0 6.1 6.1 6.1
5.5 5.2 4.8 4.6 5.2 4.6 4.6 5.0 4.7 4.7 4.5 5.1 4.8 5.2 5.4 6.0 6.6 7.0 7.0 7.1 7.1 7.0 7.1 6.9 7.1 7.4 7.3 7.7 7.8 7.4 7.5 7.6 7.8 7.9 7.8 8.1 8.1 8.2 7.8 7.1 6.7 6.7 6.5 6.3 6.1
5.5 5.4 5.1 4.5 4.5 4.6 5.0 4.5 4.4 4.0 4.4 4.5 4.5 4.8 5.3 5.9 5.9 5.9 6.1 6.3 6.6 6.7 6.8 6.6 6.9 7.1 7.4 7.7 7.5 7.7 7.9 7.9 7.9 7.8 8.0 8.2 8.5 7.6 7.5 7.2 7.1 7.0 6.7 6.5 6.2
Wind_Speed
23 23 23 22 21 20 20 19 17 16 14 13 12 11 10 10 13 10 13 4 11 13 7 13 15 14 14 15 13 9 13 14 17 12 10 4 5 14 2 6 10 2 5 7 9
22 22 22 23 22 20 20 19 18 17 15 14 13 11 10 8 14 19 13 13 9 16 15 17 16 15 14 14 10 13 12 18 10 8 3 5 5 9 6 12 14 10 9 3 6
23 24 24 24 23 21 20 19 18 17 16 14 13 12 10 10 14 4 9 15 11 18 18 15 14 15 17 14 17 15 17 18 6 6 10 14 11 7 12 14 11 11 6 9 7
25 26 27 27 25 23 21 20 19 17 16 15 13 11 10 12 5 8 8 11 10 17 17 15 13 16 17 17 16 19 17 14 13 5 11 12 13 16 9 15 15 2 3 6 11
26 29 29 26 25 24 22 21 20 19 17 14 12 10 8 9 12 11 11 9 13 16 16 15 16 16 17 15 16 17 16 13 11 13 12 13 14 16 16 13 13 10 8 13 11
29 29 29 27 26 23 22 22 21 19 16 12 9 7 9 15 6 9 11 12 14 17 15 15 11 14 17 15 15 13 14 19 10 14 14 15 17 16 18 12 13 9 12 11 12
30 30 30 29 26 24 22 21 21 18 11 12 10 6 11 15 3 3 11 14 13 15 14 15 14 10 9 17 15 14 17 16 16 14 15 10 18 19 16 13 9 14 12 9 5
31 31 31 30 27 24 20 18 17 9 6 10 10 9 7 5 5 7 10 13 10 11 11 8 10 14 18 14 8 14 17 16 18 19 15 13 17 19 17 15 12 14 14 8 8
33 32 31 30 27 22 15 14 7 2 6 10 8 9 8 4 6 10 10 11 10 9 8 4 11 15 16 16 14 16 15 19 15 6 10 14 15 19 11 8 11 11 12 10 6
35 34 32 30 27 20 12 9 1 6 7 9 7 6 6 3 4 3 10 11 12 11 11 12 10 15 15 14 16 17 18 17 12 15 12 14 17 16 8 13 12 12 13 9 6
36 34 33 31 28 20 10 5 4 6 10 8 6 8 4 4 7 7 10 11 13 13 15 16 13 17 20 20 21 22 14 14 10 11 7 15 15 14 12 13 12 14 9 8 1
37 36 34 31 30 24 9 9 6 6 7 1 2 3 0 4 6 12 14 12 16 16 19 16 17 19 17 18 15 18 14 17 15 11 9 15 18 16 13 12 15 13 10 4 4
36 37 37 31 29 10 5 11 6 4 7 6 2 3 3 4 2 7 12 16 15 19 20 20 17 14 20 14 15 17 18 16 16 12 10 16 18 14 16 9 5 1 3 5 2
35 36 36 39 6 8 6 12 7 1 6 4 3 4 1 2 6 1 6 17 19 21 20 21 20 15 13 17 16 18 17 16 16 14 13 21 14 20 18 12 12 9 8 5 3
35 34 35 13 10 6 10 12 6 4 4 4 3 5 2 6 7 9 4 11 20 19 16 21 22 20 19 17 17 16 17 13 16 17 16 16 9 17 21 20 16 8 5 5 9
38 37 30 4 10 9 13 9 5 7 2 3 2 7 9 1 2 5 6 8 10 18 22 21 19 15 16 17 13 10 13 17 13 15 16 21 17 12 13 22 18 11 7 6 8
41 38 17 10 7 16 10 7 7 4 4 4 5 8 11 5 7 6 5 11 12 11 17 21 21 12 5 12 12 13 14 11 14 14 17 18 19 12 11 12 16 13 10 8 6
44 39 7 8 14 12 8 9 6 6 3 3 7 11 7 8 8 7 10 13 9 12 15 15 17 20 14 17 18 14 18 15 20 14 14 14 21 10 15 12 12 11 10 8 7
43 3 6 5 14 6 8 8 6 5 4 7 11 6 5 5 4 15 15 11 8 11 13 12 6 5 5 5 10 16 14 9 10 18 14 9 10 10 13 13 14 13 10 7 6
9 7 1 14 9 7 8 4 2 3 6 6 10 2 9 10 10 12 8 6 3 3 10 10 9 13 10 9 10 12 8 8 10 14 18 15 7 5 2 5 10 12 9 7 3
5 5 7 12 5 8 5 5 2 4 7 4 6 8 11 10 8 11 9 5 6 11 11 12 9 9 8 10 14 8 12 14 13 7 12 13 10 7 4 3 11 10 7 5 3
5 5 7 8 6 2 4 4 2 4 2 5 5 6 7 7 11 11 9 7 8 11 11 9 7 13 15 4 13 11 12 1 6 13 13 13 12 12 13 9 3 4 2 6 6
6 5 4 9 3 3 2 2 3 3 2 3 4 3 4 8 5 4 5 4 7 10 9 11 7 11 17 17 13 13 16 14 13 14 18 11 3 4 4 3 4 1 3 2 5
5 3 3 2 2 6 3 3 4 3 8 5 7 4 9 10 8 7 8 2 2 10 5 7 11 14 12 4 8 12 4 10 10 11 18 18 18 9 7 9 4 2 3 5 4
2 4 4 4 3 6 4 2 7 4 5 4 5 6 7 8 11 12 10 7 8 8 8 7 14 15 14 12 7 12 15 13 13 14 14 14 3 16 17 16 4 2 7 8 9
5 4 2 7 4 6 4 2 6 2 4 5 5 10 6 10 11 14 14 12 9 4 9 7 11 12 12 13 14 10 14 13 15 14 14 13 13 7 8 3 5 7 6 6 9
3 3 5 2 5 6 2 4 4 3 6 5 8 7 10 9 10 11 12 12 13 11 10 7 10 10 13 5 8 13 16 15 17 16 13 12 10 10 3 3 5 6 8 9 8
Wind_Direction
351 349 345 341 339 336 334 330 327 325 320 313 310 308 299 293 288 244 252 270 193 150 197 198 217 224 237 239 238 244 262 251 252 246 244 235 245 245 268 266 233 198 312 43 126
349 345 341 338 335 332 329 326 323 319 316 310 306 303 296 293 273 263 235 135 146 171 206 201 208 213 221 227 214 232 232 251 293 332 293 288 240 272 247 249 226 192 132 72 143
346 341 338 336 332 329 325 321 316 311 308 305 299 297 293 277 279 209 117 144 158 195 228 206 211 213 229 224 219 227 248 276 322 267 283 280 262 252 252 256 251 231 135 149 190
340 336 335 333 330 326 322 317 311 305 302 298 294 293 290 259 294 72 125 144 176 208 234 219 225 215 233 233 234 241 259 263 277 228 251 255 265 269 261 263 275 208 311 265 181
334 333 331 331 327 323 319 314 306 301 295 287 284 286 268 232 259 119 140 162 189 205 220 215 224 225 239 245 239 245 251 262 261 254 247 264 256 265 262 251 263 259 258 245 212
336 332 330 329 326 321 316 311 304 297 284 269 260 266 245 258 78 134 177 174 182 202 212 222 228 233 258 273 255 248 256 260 241 246 240 244 253 247 254 257 246 251 244 240 220
335 332 330 327 323 321 316 312 307 294 263 229 221 225 257 254 26 182 185 192 194 211 217 225 244 258 237 262 259 257 261 257 245 239 244 237 254 245 243 253 234 238 229 243 264
337 334 331 326 324 322 319 313 310 317 214 197 199 227 266 60 316 232 204 199 206 223 254 253 241 261 253 272 270 244 245 254 233 211 224 231 258 223 227 221 237 243 228 210 219
339 336 334 330 329 328 319 309 315 103 160 173 192 229 259 140 213 211 206 203 202 207 223 279 248 239 238 249 244 225 246 227 246 183 238 207 249 252 174 194 240 247 236 215 190
339 338 336 333 330 329 305 259 19 180 190 214 275 224 229 36 75 210 201 230 189 201 215 216 220 226 233 221 236 227 216 248 237 168 219 230 236 269 178 215 223 234 235 224 212
336 337 336 333 327 323 303 198 239 191 230 323 330 307 278 263 164 181 189 210 201 204 220 207 218 221 232 228 249 274 282 292 248 232 214 239 248 235 231 228 225 230 215 215 83
336 336 336 333 324 315 283 33 31 324 297 270 210 253 203 319 255 213 165 203 210 225 221 237 231 250 239 255 242 254 259 257 262 253 220 250 242 248 244 227 230 229 175 125 194
336 335 332 330 321 293 2 20 313 298 258 145 84 346 24 247 251 225 189 223 223 230 237 236 235 231 246 242 244 241 248 249 253 217 247 262 255 224 231 199 110 171 82 171 187
335 333 331 325 308 328 36 349 330 281 259 126 167 95 222 246 226 340 258 244 232 241 241 251 240 253 250 254 240 248 237 253 265 245 241 206 251 217 209 180 183 176 193 156 111
332 331 326 329 311 352 338 337 334 227 250 69 57 334 267 325 346 158 293 240 245 245 241 251 238 244 251 250 239 246 269 225 247 255 260 242 241 292 173 181 177 169 130 130 85
332 328 328 201 238 338 324 321 247 231 102 127 313 339 311 35 7 313 242 233 255 255 259 251 267 230 259 239 253 284 263 258 243 246 243 244 249 234 217 184 147 141 133 99 85
328 323 314 306 325 322 317 257 245 281 134 79 340 323 307 310 296 312 294 228 245 230 237 236 250 218 244 258 227 238 240 241 228 228 243 245 236 252 91 85 136 139 130 106 98
326 316 204 273 313 320 289 252 260 71 32 25 304 302 286 4 292 300 281 266 204 293 281 266 237 201 180 245 259 232 232 244 250 247 259 279 229 136 115 119 122 120 103 102 83
320 267 256 350 317 298 267 248 25 23 4 325 301 254 239 228 300 299 279 287 14 339 313 289 287 189 314 264 263 252 259 277 309 275 263 239 104 126 142 146 150 139 120 98 79
317 285 228 326 312 268 257 9 358 12 318 302 292 354 312 322 317 310 309 47 323 316 329 315 281 196 164 249 227 251 302 254 241 270 271 267 203 324 290 161 160 132 122 95 26
263 275 49 333 274 249 298 50 296 76 328 309 325 297 295 309 299 300 290 81 30 315 309 295 276 250 261 222 248 197 236 231 249 215 251 264 278 136 153 53 343 65 59 51 335
288 277 21 329 247 322 358 9 26 279 226 281 286 283 288 311 289 283 282 338 28 314 291 334 305 272 233 292 322 302 283 3 288 223 234 267 260 140 156 156 211 58 82 61 16
304 303 49 299 312 20 100 229 293 271 298 287 276 242 320 287 297 227 301 34 330 300 1 352 249 265 245 213 190 248 259 254 253 265 269 258 246 335 57 171 143 338 38 17 346
287 292 122 119 85 319 355 181 249 170 282 280 289 268 274 267 235 263 281 200 227 295 30 310 279 275 287 132 225 282 258 279 278 261 259 254 261 212 224 265 199 241 305 319 336
291 52 4 321 48 327 286 314 277 250 214 250 241 252 300 293 284 279 274 301 272 221 253 255 275 277 280 289 278 283 283 277 246 259 267 264 302 193 213 227 146 298 288 298 304
320 343 338 278 301 275 146 231 306 305 273 272 254 305 285 280 286 308 316 296 299 315 267 243 265 276 285 272 267 275 275 268 262 266 269 275 274 289 290 39 283 251 265 290 305
33 227 273 210 242 269 17 353 325 314 269 296 315 307 284 320 337 312 298 292 284 278 286 289 272 274 270 326 298 267 258 257 254 245 251 260 273 22 47 233 268 304 302 286 314